Voltar ao catálogo

COSMOS 1818 COOLANT

LostLEO
NORAD 36940·DEBRIS·🇷🇺 Russia

Lançado Feb 1, 1987 de Baikonur Cosmodrome

Loading…

Próximas Passagens (próximas 24 horas)

TLE

ObsoletoSource: Space-Track

Época: Sep 3, 2022, 22:47 UTC

1 36940U 87011U   22246.94949399  .00000262  00000-0  12978-3 0  9991
2 36940  65.0140 137.1699 0012381 250.3065 109.6685 14.33888462682033

Acompanhe COSMOS 1818 COOLANT em tempo real com AllMySat

Download on the App Store